EW1268 Weather Reports


Display with metric or nautical units.
time (UTC)temp
F
wind
direction
speed
MPH
gust
MPH
rain 1hr
in
rain 24hr
in
rain mn
in
humidity
%
barometer
mb
20260504050508 62 137 1.0 3.0 0.00 0.00 0.00 78 1018.6
20260504045506 62 161 0.0 2.0 0.00 0.00 0.00 79 1018.5
20260504045504 62 157 0.0 2.0 0.00 0.00 0.00 79 1018.5
20260504045004 63 93 0.0 2.0 0.00 0.00 0.00 78 1018.5
20260504044515 63 168 0.0 3.0 0.00 0.00 0.00 78 1018.6
20260504044005 63 93 1.0 3.0 0.00 0.00 0.00 76 1018.5
20260504043508 63 119 0.0 2.0 0.00 0.00 0.00 76 1018.5
20260504043024 63 146 0.0 2.0 0.00 0.00 0.00 76 1018.6
20260504042509 63 153 0.0 2.0 0.00 0.00 0.00 75 1018.7
20260504042009 64 161 1.0 2.0 0.00 0.00 0.00 76 1018.6
20260504041510 64 93 0.0 2.0 0.00 0.00 0.00 76 1018.7
20260504041007 64 126 0.0 2.0 0.00 0.00 0.00 75 1018.7
20260504040507 64 165 1.0 2.0 0.00 0.00 0.00 73 1018.7
20260504040018 64 205 1.0 3.0 0.00 0.00 0.00 73 1018.6
20260504035512 64 168 1.0 5.0 0.00 0.00 0.00 73 1018.6
20260504035009 64 153 1.0 6.0 0.00 0.00 0.00 72 1018.3
20260504034525 65 161 1.0 6.0 0.00 0.00 0.00 72 1018.3
20260504034011 65 178 1.0 4.0 0.00 0.00 0.00 72 1018.3
20260504033509 65 165 1.0 6.0 0.00 0.00 0.00 71 1018.3
20260504033027 65 198 2.0 6.0 0.00 0.00 0.00 71 1018.4
20260504032509 65 221 2.0 6.0 0.00 0.00 0.00 71 1018.4
20260504032009 66 153 1.0 6.0 0.00 0.00 0.00 70 1018.4
20260504031523 66 170 2.0 6.0 0.00 0.00 0.00 69 1018.3
20260504031009 66 163 2.0 7.0 0.00 0.00 0.00 69 1018.2
20260504030509 66 234 3.0 7.0 0.00 0.00 0.00 69 1018.2
20260504030029 66 166 2.0 6.0 0.00 0.00 0.00 68 1018.2
20260504025503 67 200 3.0 6.0 0.00 0.00 0.00 68 1018.2
20260504025004 67 169 3.0 8.0 0.00 0.00 0.00 67 1018.1
20260504024511 67 188 2.0 8.0 0.00 0.00 0.00 67 1018.1
20260504024007 67 192 4.0 7.0 0.00 0.00 0.00 67 1018.1
20260504023508 67 146 3.0 7.0 0.00 0.00 0.00 66 1018.0
20260504023025 68 221 3.0 9.0 0.00 0.00 0.00 66 1017.9
20260504022509 68 169 4.0 9.0 0.00 0.00 0.00 65 1018.0
20260504022010 68 155 3.0 9.0 0.00 0.00 0.00 65 1018.0
20260504021509 68 178 3.0 9.0 0.00 0.00 0.00 65 1017.9
20260504021004 68 188 2.0 7.0 0.00 0.00 0.00 64 1017.9
20260504020508 69 167 3.0 7.0 0.00 0.00 0.00 63 1017.9
20260504020016 69 164 2.0 6.0 0.00 0.00 0.00 63 1017.9
20260504015506 69 159 2.0 10.0 0.00 0.00 0.00 63 1017.8
20260504015008 69 169 3.0 10.0 0.00 0.00 0.00 62 1017.7
20260504014521 70 146 3.0 9.0 0.00 0.00 0.00 62 1017.8
20260504014012 70 175 3.0 10.0 0.00 0.00 0.00 62 1017.9
20260504013506 70 167 4.0 10.0 0.00 0.00 0.00 61 1018.0
20260504013014 70 173 4.0 11.0 0.00 0.00 0.00 60 1017.9
20260504012507 71 140 6.0 11.0 0.00 0.00 0.00 60 1017.8
20260504012011 71 186 4.0 9.0 0.00 0.00 0.00 60 1017.8
20260504011519 71 155 3.0 8.0 0.00 0.00 0.00 59 1017.7
20260504011006 72 153 2.0 7.0 0.00 0.00 0.00 58 1017.8
20260504010512 72 177 2.0 7.0 0.00 0.00 0.00 58 1017.7
20260504010026 73 161 2.0 11.0 0.00 0.00 0.00 57 1017.7
20260504005505 73 213 5.0 11.0 0.00 0.00 0.00 56 1017.6
20260504005007 74 229 5.0 11.0 0.00 0.00 0.00 55 1017.8
20260504004515 74 205 4.0 10.0 0.00 0.00 0.00 55 1017.8
20260504004009 75 170 4.0 10.0 0.00 0.00 0.00 54 1017.7
20260504003509 75 178 2.0 11.0 0.00 0.00 0.00 55 1017.9
20260504003030 75 164 3.0 11.0 0.00 0.00 0.00 53 1017.8
20260504002509 75 163 4.0 12.0 0.00 0.00 0.00 53 1017.7
20260504002009 76 198 5.0 12.0 0.00 0.00 0.00 53 1017.7
20260504001510 76 196 5.0 11.0 0.00 0.00 0.00 51 1017.8
20260504001004 77 187 5.0 17.0 0.00 0.00 0.00 50 1017.7
20260504000506 78 166 6.0 17.0 0.00 0.00 0.00 49 1017.8
20260504000046 80 166 7.0 17.0 0.00 0.00 0.00 48 1017.7
20260503235509 81 160 5.0 10.0 0.00 0.00 0.00 46 1017.7
20260503235008 81 188 4.0 9.0 0.00 0.00 0.00 45 1017.8
20260503234526 82 234 2.0 9.0 0.00 0.00 0.00 43 1017.8
20260503234008 82 205 3.0 9.0 0.00 0.00 0.00 45 1017.7
20260503233502 82 184 3.0 10.0 0.00 0.00 0.00 45 1017.7
20260503233010 82 178 4.0 11.0 0.00 0.00 0.00 45 1017.8
20260503232507 83 238 3.0 11.0 0.00 0.00 0.00 42 1017.9
20260503232007 83 196 4.0 12.0 0.00 0.00 0.00 44 1017.9
20260503231523 83 173 3.0 12.0 0.00 0.00 0.00 42 1018.1
20260503231009 83 185 5.0 10.0 0.00 0.00 0.00 43 1018.0
20260503230509 83 198 4.0 11.0 0.00 0.00 0.00 41 1018.1
20260503230026 82 186 4.0 11.0 0.00 0.00 0.00 42 1018.1
20260503225509 83 139 2.0 12.0 0.00 0.00 0.00 45 1018.0
20260503225009 82 209 5.0 12.0 0.00 0.00 0.00 42 1018.0
20260503224515 82 196 3.0 12.0 0.00 0.00 0.00 42 1018.1
20260503224006 83 194 5.0 12.0 0.00 0.00 0.00 41 1018.2
20260503223511 83 247 3.0 11.0 0.00 0.00 0.00 42 1018.2
20260503223028 84 161 2.0 10.0 0.00 0.00 0.00 39 1018.3
20260503222509 84 148 4.0 10.0 0.00 0.00 0.00 45 1018.2
20260503222011 83 119 2.0 12.0 0.00 0.00 0.00 42 1018.4
20260503221532 84 51 5.0 12.0 0.00 0.00 0.00 40 1018.5
20260503221014 84 191 4.0 10.0 0.00 0.00 0.00 42 1018.4
20260503220509 83 163 4.0 10.0 0.00 0.00 0.00 44 1018.4
20260503220021 83 294 2.0 11.0 0.00 0.00 0.00 43 1018.4
20260503215512 83 295 2.0 11.0 0.00 0.00 0.00 42 1018.3
20260503215009 84 148 3.0 14.0 0.00 0.00 0.00 42 1018.5
20260503214524 85 191 4.0 14.0 0.00 0.00 0.00 42 1018.7
20260503214014 85 218 4.0 11.0 0.00 0.00 0.00 41 1018.6
20260503213516 86 17 3.0 8.0 0.00 0.00 0.00 40 1018.7
20260503213026 86 215 3.0 7.0 0.00 0.00 0.00 45 1018.9
20260503212510 85 205 1.0 7.0 0.00 0.00 0.00 45 1019.1
20260503212012 85 197 1.0 10.0 0.00 0.00 0.00 45 1019.2
20260503211521 84 170 2.0 10.0 0.00 0.00 0.00 45 1019.2
20260503211011 83 192 3.0 10.0 0.00 0.00 0.00 47 1019.4
20260503210515 84 175 4.0 14.0 0.00 0.00 0.00 39 1019.5
20260503210026 85 145 7.0 14.0 0.00 0.00 0.00 41 1019.4
20260503205511 86 191 6.0 11.0 0.00 0.00 0.00 45 1019.5
20260503205009 86 194 3.0 9.0 0.00 0.00 0.00 44 1019.5
20260503204527 85 178 2.0 10.0 0.00 0.00 0.00 48 1019.5
20260503204011 85 170 2.0 12.0 0.00 0.00 0.00 48 1019.6
20260503203509 85 167 3.0 12.0 0.00 0.00 0.00 49 1019.7
20260503203038 84 83 2.0 10.0 0.00 0.00 0.00 54 1019.7
20260503202510 83 88 2.0 10.0 0.00 0.00 0.00 52 1019.8
20260503202013 82 205 3.0 7.0 0.00 0.00 0.00 50 1019.8
20260503201533 83 309 2.0 9.0 0.00 0.00 0.00 42 1019.9
20260503201009 85 88 3.0 12.0 0.00 0.00 0.00 48 1020.1
20260503200511 85 165 4.0 12.0 0.00 0.00 0.00 49 1020.1
20260503200028 84 202 4.0 9.0 0.00 0.00 0.00 48 1020.3
20260503195508 84 63 2.0 7.0 0.00 0.00 0.00 49 1020.3
20260503195010 84 200 2.0 6.0 0.00 0.00 0.00 51 1020.4
20260503194525 84 187 2.0 8.0 0.00 0.00 0.00 56 1020.5
20260503194009 83 153 2.0 13.0 0.00 0.00 0.00 51 1020.5
20260503193510 83 190 3.0 13.0 0.00 0.00 0.00 52 1020.7
20260503193028 82 191 4.0 12.0 0.00 0.00 0.00 52 1020.6
20260503192512 82 232 2.0 8.0 0.00 0.00 0.00 46 1020.8
20260503192009 81 76 2.0 7.0 0.00 0.00 0.00 52 1020.9
20260503191524 81 93 2.0 7.0 0.00 0.00 0.00 46 1020.9
20260503191010 82 247 2.0 11.0 0.00 0.00 0.00 52 1021.2
20260503190516 82 187 5.0 13.0 0.00 0.00 0.00 49 1021.3
20260503190035 82 80 2.0 13.0 0.00 0.00 0.00 51 1021.3
20260503185510 83 169 3.0 9.0 0.00 0.00 0.00 50 1021.3
20260503185008 83 155 5.0 9.0 0.00 0.00 0.00 54 1021.4
20260503184517 83 213 2.0 5.0 0.00 0.00 0.00 51 1021.4
20260503184007 83 85 2.0 9.0 0.00 0.00 0.00 55 1021.4
20260503183511 83 178 2.0 10.0 0.00 0.00 0.00 55 1021.6
20260503183029 82 22 2.0 10.0 0.00 0.00 0.00 50 1021.7
20260503182515 83 88 3.0 9.0 0.00 0.00 0.00 50 1021.8
20260503182012 83 309 2.0 8.0 0.00 0.00 0.00 57 1021.9
20260503181530 82 157 3.0 11.0 0.00 0.00 0.00 53 1022.0
20260503181007 82 175 3.0 12.0 0.00 0.00 0.00 53 1022.1
20260503180510 81 186 5.0 12.0 0.00 0.00 0.00 54 1022.0
20260503180027 81 273 2.0 10.0 0.00 0.00 0.00 55 1022.2
20260503175510 81 93 1.0 12.0 0.00 0.00 0.00 53 1022.3
20260503175010 81 171 5.0 12.0 0.00 0.00 0.00 52 1022.3
20260503174525 81 207 4.0 10.0 0.00 0.00 0.00 54 1022.4
20260503174014 81 44 2.0 6.0 0.00 0.00 0.00 54 1022.5
20260503173511 81 86 3.0 9.0 0.00 0.00 0.00 55 1022.7
20260503173030 81 194 3.0 9.0 0.00 0.00 0.00 51 1022.7
20260503172509 80 141 4.0 9.0 0.00 0.00 0.00 52 1022.8
20260503172010 80 211 2.0 4.0 0.00 0.00 0.00 61 1022.8
20260503171533 79 9 1.0 7.0 0.00 0.00 0.00 52 1022.8
20260503171009 80 93 1.0 7.0 0.00 0.00 0.00 55 1022.9
20260503170511 79 169 3.0 7.0 0.00 0.00 0.00 58 1023.0
20260503151011 74 170 2.0 7.0 0.00 0.00 0.00 66 1023.1
20260503150507 73 205 3.0 8.0 0.00 0.00 0.00 69 1023.1
20260503131011 58 93 0.0 1.0 0.00 0.00 0.00 95 1022.3
20260503130507 57 9 0.0 1.0 0.00 0.00 0.00 95 1022.4
20260503110513 55 9 0.0 1.0 0.00 0.00 0.00 93 1021.5
20260503090510 56 51 0.0 1.0 0.00 0.00 0.00 92 1020.8
20260503081525 56 9 0.0 1.0 0.00 0.00 0.00 92 1020.9
20260503081009 56 51 0.0 1.0 0.00 0.00 0.00 92 1020.9
20260503080509 57 34 0.0 1.0 0.00 0.00 0.00 92 1020.9
20260503072510 57 67 0.0 1.0 0.00 0.00 0.00 91 1020.9
20260503072012 57 67 0.0 1.0 0.00 0.00 0.00 91 1020.9
20260503071528 57 9 0.0 1.0 0.00 0.00 0.00 91 1021.0
20260503071011 57 51 0.0 1.0 0.00 0.00 0.00 91 1021.1
20260503070514 57 93 0.0 1.0 0.00 0.00 0.00 91 1021.0
20260503055011 59 51 0.0 1.0 0.00 0.00 0.00 90 1021.3